Weather reports worldwide

Advertisment
Levens Hall, United Kingdom (99172): temperature & dewpoint: 27.05.2020 21:00:00 - 02.06.2020 21:00:00 (BST)Levens Hall, United Kingdom (99172): precipitation: 27.05.2020 21:00:00 - 02.06.2020 21:00:00 (BST)
Date & Time tt [°C] td [°C] rr [mm]
02.06.2020 21:00:00 18,2 10,7 0,0
02.06.2020 20:00:00 19,6 9,7 0,0
02.06.2020 19:00:00 20,9 8,9 0,0
02.06.2020 18:00:00 23,4 9,8 0,0
02.06.2020 17:00:00 23,5 11,2 0,0
02.06.2020 16:00:00 21,7 12,6 0,0
02.06.2020 15:00:00 21,1 11,2 0,0
02.06.2020 14:00:00 21,4 11,2 0,0
02.06.2020 13:00:00 20,5 11,4 0,0
02.06.2020 12:00:00 19,8 8,6 0,0
02.06.2020 11:00:00 19,1 8,5 -
02.06.2020 10:00:00 - - -
02.06.2020 09:00:00 - - -
02.06.2020 08:00:00 13,5 7,9 0,0
02.06.2020 07:00:00 10,6 8,3 0,0
02.06.2020 06:00:00 8,5 7,3 0,0
02.06.2020 05:00:00 7,7 6,6 0,0
02.06.2020 04:00:00 8,1 6,7 0,0
02.06.2020 03:00:00 9,6 8,2 0,0
02.06.2020 02:00:00 10,3 8,6 0,0
02.06.2020 01:00:00 11,5 9,1 0,0
02.06.2020 00:00:00 13,1 9,1 0,0
01.06.2020 23:00:00 14,2 9,3 0,0
01.06.2020 22:00:00 15,9 9,3 0,0
01.06.2020 21:00:00 18,7 9,1 0,0
01.06.2020 20:00:00 21,2 8,2 0,0
01.06.2020 19:00:00 22,9 8,7 0,0
01.06.2020 18:00:00 23,2 9,4 0,0
01.06.2020 17:00:00 23,5 5,9 0,0
01.06.2020 16:00:00 23,6 6,1 0,0
01.06.2020 15:00:00 23,9 9,7 0,0
01.06.2020 14:00:00 23,0 8,0 0,0
01.06.2020 13:00:00 22,1 7,5 0,0
01.06.2020 12:00:00 20,9 6,3 0,0
01.06.2020 11:00:00 20,5 7,2 0,0
01.06.2020 10:00:00 19,5 6,8 0,0
01.06.2020 09:00:00 18,4 8,3 0,0
01.06.2020 08:00:00 14,0 7,9 0,0
01.06.2020 07:00:00 11,8 7,5 0,0
01.06.2020 06:00:00 8,6 6,1 0,0
01.06.2020 05:00:00 7,4 6,0 0,0
01.06.2020 04:00:00 7,9 5,3 0,0
01.06.2020 03:00:00 9,4 6,5 0,0
01.06.2020 02:00:00 10,1 7,3 0,0
01.06.2020 01:00:00 10,3 6,6 0,0
01.06.2020 00:00:00 12,2 6,8 0,0
31.05.2020 23:00:00 15,7 6,9 0,0
31.05.2020 22:00:00 16,8 7,3 0,0
31.05.2020 21:00:00 19,6 8,0 0,0
31.05.2020 20:00:00 21,7 7,7 0,0
31.05.2020 19:00:00 22,7 8,0 0,0
31.05.2020 18:00:00 23,2 7,9 0,0
31.05.2020 17:00:00 23,5 7,5 0,0
31.05.2020 16:00:00 23,6 6,7 0,0
31.05.2020 15:00:00 23,2 6,2 0,0
31.05.2020 14:00:00 22,9 7,2 0,0
31.05.2020 13:00:00 22,3 5,3 0,0
31.05.2020 12:00:00 21,2 3,4 0,0
31.05.2020 11:00:00 19,9 5,3 0,0
31.05.2020 10:00:00 18,3 5,0 0,0
31.05.2020 09:00:00 16,5 5,9 0,0
31.05.2020 08:00:00 14,8 7,6 0,0
31.05.2020 07:00:00 10,7 9,1 0,0
31.05.2020 06:00:00 7,5 6,4 0,0
31.05.2020 05:00:00 7,6 6,2 0,0
31.05.2020 04:00:00 8,2 5,9 0,0
31.05.2020 03:00:00 10,0 6,1 0,0
31.05.2020 02:00:00 11,5 5,6 0,0
31.05.2020 01:00:00 12,5 6,3 0,0
31.05.2020 00:00:00 14,3 5,4 0,0
30.05.2020 23:00:00 15,1 7,0 0,0
30.05.2020 22:00:00 16,8 7,6 0,0
30.05.2020 21:00:00 18,3 7,6 0,0
30.05.2020 20:00:00 20,2 8,4 0,0
30.05.2020 19:00:00 21,1 8,8 0,0
30.05.2020 18:00:00 22,0 9,3 0,0
30.05.2020 17:00:00 22,4 8,8 0,0
30.05.2020 16:00:00 22,4 7,9 0,0
30.05.2020 15:00:00 22,1 7,2 0,0
30.05.2020 14:00:00 21,5 6,1 0,0
30.05.2020 13:00:00 20,8 6,4 0,0
30.05.2020 12:00:00 19,8 4,7 0,0
30.05.2020 11:00:00 19,1 3,9 0,0
30.05.2020 10:00:00 17,2 4,6 0,0
30.05.2020 09:00:00 15,9 5,1 0,0
30.05.2020 08:00:00 13,9 3,0 0,0
30.05.2020 07:00:00 12,5 4,0 0,0
30.05.2020 06:00:00 8,0 4,4 0,0
30.05.2020 05:00:00 8,8 4,4 0,0
30.05.2020 04:00:00 11,4 4,7 0,0
30.05.2020 03:00:00 11,6 5,6 0,0
30.05.2020 02:00:00 12,7 5,9 0,0
30.05.2020 01:00:00 14,0 6,6 0,0
30.05.2020 00:00:00 14,8 7,7 0,0
29.05.2020 23:00:00 16,2 7,9 0,0
29.05.2020 22:00:00 18,3 8,6 0,0
29.05.2020 21:00:00 20,2 9,6 0,0
29.05.2020 20:00:00 22,5 9,3 0,0
29.05.2020 19:00:00 23,3 7,9 0,0
29.05.2020 18:00:00 24,3 9,3 0,0
29.05.2020 17:00:00 24,5 8,8 0,0
29.05.2020 16:00:00 24,7 11,0 0,0
29.05.2020 15:00:00 24,7 10,1 0,0
29.05.2020 14:00:00 24,3 9,8 0,0
29.05.2020 13:00:00 23,3 11,6 0,0
29.05.2020 12:00:00 22,0 11,2 0,0
29.05.2020 11:00:00 20,8 9,5 0,0
29.05.2020 10:00:00 19,4 8,8 0,0
29.05.2020 09:00:00 19,1 8,4 0,0
29.05.2020 08:00:00 15,4 10,7 0,0
29.05.2020 07:00:00 12,9 9,6 0,0
29.05.2020 06:00:00 9,8 8,1 0,0
29.05.2020 05:00:00 9,8 8,3 0,0
29.05.2020 04:00:00 10,4 8,9 0,0
29.05.2020 03:00:00 11,5 9,6 0,0
29.05.2020 02:00:00 11,7 10,5 0,0
29.05.2020 01:00:00 12,4 11,1 0,0
29.05.2020 00:00:00 13,2 11,5 0,0
28.05.2020 23:00:00 14,8 11,7 0,0
28.05.2020 22:00:00 16,8 13,4 0,0
28.05.2020 21:00:00 19,0 13,1 0,0
28.05.2020 20:00:00 20,9 12,8 0,0
28.05.2020 19:00:00 22,9 11,1 0,0
28.05.2020 18:00:00 23,2 10,4 0,0
28.05.2020 17:00:00 23,1 11,8 0,0
28.05.2020 16:00:00 22,5 10,9 0,0
28.05.2020 15:00:00 22,7 12,0 0,0
28.05.2020 14:00:00 21,7 10,8 0,0
28.05.2020 13:00:00 21,3 9,8 0,0
28.05.2020 12:00:00 20,3 9,6 0,0
28.05.2020 11:00:00 19,9 10,2 0,0
28.05.2020 10:00:00 17,1 6,9 0,0
28.05.2020 09:00:00 16,2 8,4 0,0
28.05.2020 08:00:00 12,6 8,1 0,0
28.05.2020 07:00:00 10,4 7,8 0,0
28.05.2020 06:00:00 7,8 6,5 0,0
28.05.2020 05:00:00 7,7 6,3 0,0
28.05.2020 04:00:00 8,4 6,6 0,0
28.05.2020 03:00:00 9,6 6,9 0,0
28.05.2020 02:00:00 10,7 7,9 0,0
28.05.2020 01:00:00 11,3 7,5 0,0
28.05.2020 00:00:00 10,8 7,5 0,0
27.05.2020 23:00:00 11,8 8,2 0,0
27.05.2020 22:00:00 13,6 9,0 0,0
27.05.2020 21:00:00 16,6 8,9 0,0

tt = temperature
td = dewpoint
rr = precipitation

Next stations